QPF
0.00 0.00 0.00 0.00 0.00 0.00 0.01 0.02 0.04 0.02 0.03 0.04 0.05 0.06 0.06 0.07 0.07 0.08 0.07 0.06 0.05 0.07 0.08 0.05 0.09 0.08 0.08 0.09 0.10 0.13 0.15 0.14 0.13 0.12 0.10 0.08 0.06 0.06 0.05 0.05 0.05 0.06 0.07
0.00 0.00 0.00 0.00 0.00 0.03 0.02 0.02 0.01 0.01 0.02 0.05 0.08 0.10 0.08 0.06 0.07 0.06 0.07 0.05 0.04 0.06 0.06 0.08 0.07 0.07 0.08 0.09 0.10 0.14 0.14 0.14 0.17 0.15 0.16 0.17 0.15 0.11 0.07 0.08 0.10 0.09 0.08
0.00 0.00 0.00 0.00 0.00 0.01 0.02 0.01 0.01 0.01 0.02 0.06 0.09 0.14 0.11 0.07 0.07 0.07 0.05 0.04 0.03 0.05 0.07 0.10 0.08 0.07 0.07 0.10 0.13 0.13 0.14 0.14 0.15 0.15 0.16 0.19 0.18 0.16 0.12 0.14 0.15 0.10 0.08
0.00 0.00 0.00 0.00 0.00 0.00 0.01 0.01 0.01 0.02 0.04 0.04 0.06 0.07 0.08 0.10 0.10 0.08 0.06 0.05 0.04 0.04 0.05 0.05 0.06 0.07 0.08 0.10 0.09 0.11 0.15 0.15 0.14 0.16 0.15 0.15 0.17 0.18 0.18 0.13 0.10 0.09 0.08
0.00 0.00 0.00 0.00 0.00 0.00 0.01 0.01 0.02 0.04 0.04 0.03 0.03 0.06 0.08 0.10 0.10 0.10 0.09 0.08 0.07 0.04 0.04 0.04 0.05 0.07 0.09 0.11 0.11 0.16 0.16 0.15 0.16 0.17 0.18 0.18 0.18 0.18 0.19 0.16 0.13 0.12 0.10
0.00 0.00 0.00 0.01 0.00 0.00 0.00 0.01 0.02 0.03 0.03 0.02 0.04 0.07 0.07 0.09 0.10 0.11 0.09 0.09 0.08 0.06 0.05 0.05 0.07 0.08 0.09 0.10 0.11 0.12 0.11 0.15 0.18 0.20 0.21 0.19 0.17 0.18 0.19 0.16 0.17 0.17 0.12
0.00 0.00 0.01 0.01 0.01 0.00 0.00 0.01 0.01 0.02 0.03 0.03 0.04 0.06 0.08 0.08 0.08 0.07 0.07 0.07 0.06 0.06 0.05 0.06 0.07 0.08 0.08 0.08 0.08 0.08 0.09 0.11 0.14 0.14 0.14 0.14 0.13 0.15 0.15 0.15 0.15 0.14 0.10
0.01 0.00 0.02 0.02 0.02 0.02 0.01 0.01 0.01 0.03 0.04 0.04 0.03 0.05 0.06 0.06 0.06 0.06 0.06 0.06 0.05 0.04 0.04 0.06 0.06 0.06 0.06 0.06 0.09 0.10 0.11 0.11 0.11 0.10 0.12 0.11 0.11 0.12 0.12 0.12 0.14 0.13 0.11
0.00 0.00 0.01 0.02 0.02 0.02 0.02 0.02 0.03 0.04 0.05 0.04 0.03 0.03 0.03 0.04 0.05 0.06 0.06 0.06 0.04 0.03 0.03 0.04 0.04 0.04 0.05 0.08 0.11 0.12 0.10 0.10 0.09 0.09 0.11 0.11 0.10 0.10 0.11 0.13 0.16 0.18 0.17
0.00 0.00 0.01 0.01 0.01 0.01 0.02 0.03 0.03 0.03 0.02 0.03 0.03 0.02 0.03 0.04 0.05 0.06 0.07 0.06 0.04 0.03 0.02 0.02 0.03 0.04 0.04 0.06 0.10 0.11 0.10 0.09 0.09 0.08 0.09 0.09 0.08 0.08 0.09 0.14 0.17 0.20 0.21
0.00 0.00 0.00 0.00 0.00 0.01 0.04 0.03 0.02 0.01 0.02 0.03 0.03 0.03 0.04 0.04 0.06 0.07 0.06 0.05 0.03 0.03 0.03 0.03 0.03 0.03 0.05 0.05 0.08 0.09 0.09 0.09 0.09 0.08 0.07 0.07 0.07 0.07 0.07 0.10 0.13 0.17 0.21
0.00 0.00 0.01 0.02 0.03 0.04 0.04 0.03 0.01 0.01 0.01 0.02 0.03 0.04 0.04 0.04 0.04 0.05 0.06 0.05 0.05 0.05 0.04 0.04 0.03 0.04 0.05 0.06 0.08 0.08 0.10 0.11 0.10 0.08 0.09 0.08 0.07 0.08 0.08 0.10 0.14 0.16 0.17
0.00 0.01 0.03 0.04 0.05 0.04 0.03 0.02 0.01 0.00 0.00 0.02 0.03 0.03 0.04 0.03 0.03 0.03 0.03 0.03 0.05 0.06 0.06 0.05 0.04 0.04 0.04 0.05 0.07 0.07 0.10 0.11 0.10 0.09 0.09 0.08 0.09 0.07 0.07 0.07 0.08 0.09 0.11
0.00 0.02 0.03 0.03 0.04 0.03 0.02 0.01 0.00 0.00 0.01 0.02 0.03 0.03 0.02 0.03 0.03 0.03 0.02 0.03 0.03 0.04 0.03 0.04 0.04 0.04 0.04 0.04 0.04 0.04 0.07 0.08 0.09 0.08 0.07 0.08 0.08 0.07 0.06 0.06 0.06 0.09 0.11
0.02 0.03 0.03 0.02 0.02 0.01 0.01 0.00 0.00 0.00 0.01 0.01 0.02 0.02 0.02 0.02 0.01 0.01 0.02 0.02 0.02 0.02 0.02 0.03 0.04 0.04 0.04 0.04 0.04 0.05 0.06 0.06 0.06 0.05 0.04 0.04 0.04 0.04 0.04 0.05 0.06 0.08 0.11
0.01 0.01 0.01 0.01 0.01 0.01 0.01 0.00 0.00 0.00 0.01 0.01 0.01 0.01 0.01 0.01 0.01 0.01 0.01 0.01 0.01 0.02 0.02 0.02 0.03 0.03 0.04 0.05 0.05 0.05 0.04 0.04 0.04 0.04 0.04 0.03 0.03 0.03 0.03 0.04 0.05 0.05 0.06
0.01 0.01 0.01 0.01 0.01 0.01 0.00 0.00 0.00 0.00 0.00 0.01 0.01 0.01 0.01 0.01 0.01 0.01 0.01 0.02 0.02 0.02 0.02 0.02 0.03 0.02 0.02 0.04 0.05 0.05 0.03 0.03 0.03 0.03 0.03 0.03 0.03 0.03 0.02 0.02 0.02 0.02 0.03
0.00 0.00 0.01 0.01 0.01 0.00 0.00 0.00 0.00 0.00 0.01 0.01 0.01 0.01 0.01 0.01 0.02 0.02 0.02 0.02 0.01 0.02 0.01 0.02 0.02 0.01 0.01 0.01 0.02 0.02 0.02 0.01 0.02 0.02 0.02 0.02 0.02 0.01 0.01 0.02 0.02 0.02 0.01
0.00 0.00 0.00 0.01 0.01 0.01 0.00 0.00 0.00 0.00 0.01 0.01 0.02 0.02 0.02 0.02 0.02 0.01 0.02 0.02 0.02 0.02 0.01 0.01 0.01 0.01 0.01 0.01 0.01 0.01 0.01 0.01 0.01 0.01 0.01 0.01 0.01 0.01 0.01 0.01 0.02 0.02 0.01
0.01 0.01 0.00 0.01 0.01 0.01 0.01 0.01 0.01 0.02 0.02 0.03 0.02 0.02 0.02 0.02 0.02 0.03 0.03 0.03 0.03 0.02 0.01 0.02 0.01 0.01 0.01 0.00 0.00 0.00 0.01 0.01 0.01 0.01 0.01 0.01 0.01 0.01 0.01 0.01 0.02 0.01 0.01
0.03 0.03 0.00 0.00 0.00 0.01 0.00 0.01 0.01 0.02 0.02 0.02 0.03 0.03 0.02 0.03 0.04 0.05 0.05 0.05 0.03 0.02 0.01 0.01 0.01 0.01 0.01 0.01 0.00 0.00 0.01 0.01 0.01 0.01 0.01 0.01 0.01 0.01 0.01 0.01 0.01 0.01 0.00
0.00 0.01 0.01 0.01 0.01 0.01 0.01 0.01 0.01 0.02 0.02 0.02 0.02 0.02 0.03 0.03 0.04 0.05 0.06 0.05 0.05 0.04 0.02 0.01 0.01 0.01 0.01 0.00 0.00 0.00 0.01 0.01 0.01 0.01 0.01 0.01 0.00 0.00 0.00 0.00 0.01 0.01 0.01
0.00 0.00 0.00 0.00 0.01 0.02 0.02 0.02 0.02 0.02 0.01 0.01 0.02 0.02 0.02 0.03 0.05 0.06 0.04 0.04 0.04 0.03 0.02 0.02 0.02 0.02 0.01 0.01 0.01 0.02 0.02 0.03 0.03 0.03 0.02 0.02 0.01 0.01 0.00 0.00 0.00 0.00 0.00
0.00 0.00 0.00 0.00 0.01 0.01 0.03 0.04 0.03 0.01 0.02 0.02 0.02 0.02 0.02 0.03 0.04 0.05 0.04 0.05 0.06 0.04 0.02 0.02 0.02 0.01 0.01 0.01 0.01 0.01 0.01 0.01 0.02 0.02 0.02 0.02 0.01 0.01 0.00 0.00 0.00 0.00 0.00
0.01 0.01 0.00 0.00 0.01 0.01 0.02 0.03 0.02 0.01 0.01 0.02 0.02 0.02 0.02 0.03 0.04 0.04 0.04 0.05 0.03 0.02 0.01 0.02 0.02 0.02 0.02 0.01 0.01 0.01 0.00 0.01 0.01 0.01 0.01 0.01 0.01 0.01 0.00 0.00 0.00 0.00 0.00
0.02 0.01 0.01 0.01 0.01 0.01 0.01 0.01 0.02 0.02 0.02 0.02 0.02 0.03 0.03 0.03 0.03 0.03 0.02 0.02 0.01 0.02 0.02 0.02 0.01 0.01 0.01 0.01 0.01 0.01 0.01 0.01 0.01 0.01 0.01 0.01 0.01 0.01 0.00 0.00 0.00 0.00 0.00
MSLP
1012.28 1012.77 1013.19 1013.53 1013.80 1014.02 1014.22 1014.43 1014.66 1014.92 1015.18 1015.41 1015.60 1015.71 1015.74 1015.69 1015.57 1015.42 1015.28 1015.17 1015.12 1015.13 1015.20 1015.32 1015.47 1015.63 1015.77 1015.90 1016.00 1016.07 1016.12 1016.14 1016.14 1016.12 1016.06 1015.97 1015.84 1015.68 1015.49 1015.28 1015.08 1014.93 1014.83
1012.16 1012.69 1013.13 1013.49 1013.75 1013.96 1014.15 1014.35 1014.59 1014.86 1015.15 1015.43 1015.66 1015.80 1015.83 1015.76 1015.61 1015.40 1015.20 1015.03 1014.92 1014.91 1014.97 1015.10 1015.27 1015.44 1015.61 1015.74 1015.84 1015.92 1015.98 1016.03 1016.08 1016.13 1016.17 1016.17 1016.13 1016.01 1015.83 1015.58 1015.30 1015.01 1014.75
1012.03 1012.60 1013.09 1013.47 1013.75 1013.95 1014.13 1014.31 1014.54 1014.82 1015.13 1015.43 1015.68 1015.85 1015.89 1015.81 1015.63 1015.38 1015.13 1014.91 1014.76 1014.72 1014.76 1014.88 1015.04 1015.21 1015.36 1015.48 1015.56 1015.62 1015.69 1015.77 1015.89 1016.03 1016.18 1016.30 1016.37 1016.36 1016.24 1016.01 1015.69 1015.31 1014.93
1011.87 1012.48 1013.01 1013.44 1013.74 1013.95 1014.12 1014.30 1014.51 1014.78 1015.09 1015.40 1015.67 1015.86 1015.91 1015.84 1015.65 1015.39 1015.11 1014.86 1014.69 1014.61 1014.63 1014.72 1014.85 1014.98 1015.09 1015.17 1015.21 1015.25 1015.31 1015.41 1015.57 1015.80 1016.05 1016.31 1016.52 1016.63 1016.60 1016.43 1016.12 1015.72 1015.27
1011.68 1012.32 1012.90 1013.37 1013.71 1013.95 1014.12 1014.28 1014.48 1014.73 1015.03 1015.34 1015.62 1015.83 1015.91 1015.86 1015.69 1015.45 1015.17 1014.91 1014.72 1014.62 1014.60 1014.66 1014.74 1014.83 1014.88 1014.90 1014.89 1014.88 1014.91 1015.01 1015.20 1015.48 1015.82 1016.18 1016.51 1016.73 1016.81 1016.72 1016.47 1016.09 1015.64
1011.45 1012.12 1012.75 1013.27 1013.65 1013.91 1014.09 1014.24 1014.42 1014.65 1014.93 1015.24 1015.53 1015.75 1015.87 1015.87 1015.75 1015.54 1015.29 1015.05 1014.87 1014.75 1014.71 1014.72 1014.76 1014.78 1014.77 1014.73 1014.65 1014.59 1014.58 1014.66 1014.84 1015.14 1015.52 1015.94 1016.34 1016.64 1016.81 1016.80 1016.63 1016.32 1015.92
1011.23 1011.92 1012.58 1013.14 1013.55 1013.84 1014.03 1014.17 1014.33 1014.54 1014.80 1015.09 1015.39 1015.64 1015.80 1015.85 1015.79 1015.65 1015.46 1015.26 1015.09 1014.98 1014.92 1014.90 1014.89 1014.86 1014.80 1014.70 1014.58 1014.46 1014.40 1014.44 1014.59 1014.85 1015.22 1015.63 1016.04 1016.38 1016.59 1016.65 1016.56 1016.35 1016.05
1011.06 1011.75 1012.42 1013.00 1013.45 1013.75 1013.94 1014.08 1014.22 1014.40 1014.63 1014.91 1015.21 1015.48 1015.68 1015.80 1015.81 1015.74 1015.61 1015.47 1015.34 1015.25 1015.19 1015.15 1015.11 1015.05 1014.96 1014.82 1014.66 1014.52 1014.42 1014.40 1014.49 1014.70 1014.99 1015.34 1015.70 1016.01 1016.22 1016.32 1016.30 1016.18 1016.02
1010.97 1011.64 1012.30 1012.89 1013.34 1013.65 1013.85 1013.98 1014.10 1014.25 1014.45 1014.71 1015.00 1015.28 1015.52 1015.68 1015.77 1015.77 1015.72 1015.64 1015.56 1015.50 1015.45 1015.41 1015.37 1015.31 1015.20 1015.07 1014.91 1014.75 1014.62 1014.57 1014.59 1014.71 1014.91 1015.15 1015.40 1015.63 1015.80 1015.90 1015.92 1015.91 1015.88
1010.99 1011.61 1012.24 1012.81 1013.25 1013.55 1013.75 1013.86 1013.96 1014.09 1014.26 1014.49 1014.76 1015.04 1015.30 1015.51 1015.66 1015.73 1015.75 1015.74 1015.71 1015.68 1015.66 1015.64 1015.62 1015.57 1015.49 1015.38 1015.25 1015.11 1014.99 1014.91 1014.89 1014.92 1015.00 1015.12 1015.24 1015.36 1015.45 1015.51 1015.56 1015.61 1015.70
1011.11 1011.66 1012.24 1012.75 1013.16 1013.45 1013.63 1013.74 1013.82 1013.92 1014.07 1014.27 1014.52 1014.79 1015.06 1015.30 1015.49 1015.62 1015.70 1015.75 1015.77 1015.79 1015.80 1015.81 1015.82 1015.80 1015.77 1015.71 1015.64 1015.55 1015.46 1015.38 1015.33 1015.30 1015.28 1015.28 1015.27 1015.27 1015.26 1015.26 1015.30 1015.40 1015.58
1011.32 1011.78 1012.27 1012.72 1013.07 1013.33 1013.49 1013.59 1013.66 1013.75 1013.88 1014.06 1014.29 1014.55 1014.82 1015.07 1015.30 1015.48 1015.61 1015.71 1015.79 1015.85 1015.89 1015.94 1015.97 1016.00 1016.02 1016.02 1016.01 1015.99 1015.95 1015.91 1015.86 1015.79 1015.71 1015.61 1015.50 1015.38 1015.28 1015.22 1015.23 1015.34 1015.57
1011.59 1011.95 1012.32 1012.68 1012.96 1013.18 1013.32 1013.42 1013.49 1013.58 1013.70 1013.86 1014.08 1014.33 1014.60 1014.87 1015.12 1015.34 1015.53 1015.68 1015.80 1015.90 1015.98 1016.05 1016.12 1016.18 1016.24 1016.30 1016.35 1016.39 1016.42 1016.42 1016.39 1016.32 1016.20 1016.05 1015.87 1015.67 1015.50 1015.38 1015.36 1015.45 1015.68
1011.90 1012.13 1012.39 1012.63 1012.84 1013.00 1013.13 1013.22 1013.30 1013.40 1013.52 1013.69 1013.90 1014.14 1014.42 1014.70 1014.98 1015.25 1015.48 1015.69 1015.86 1016.00 1016.11 1016.20 1016.29 1016.37 1016.45 1016.54 1016.63 1016.72 1016.79 1016.84 1016.85 1016.80 1016.69 1016.53 1016.32 1016.09 1015.87 1015.70 1015.64 1015.69 1015.90
1012.24 1012.34 1012.46 1012.59 1012.71 1012.83 1012.93 1013.02 1013.12 1013.23 1013.37 1013.54 1013.76 1014.01 1014.29 1014.60 1014.92 1015.23 1015.51 1015.77 1015.99 1016.17 1016.31 1016.41 1016.50 1016.58 1016.66 1016.75 1016.85 1016.96 1017.06 1017.15 1017.19 1017.18 1017.11 1016.96 1016.76 1016.53 1016.30 1016.11 1016.01 1016.02 1016.17
1012.63 1012.59 1012.58 1012.60 1012.64 1012.69 1012.77 1012.87 1012.97 1013.10 1013.26 1013.44 1013.67 1013.93 1014.23 1014.56 1014.91 1015.27 1015.61 1015.92 1016.19 1016.40 1016.57 1016.68 1016.75 1016.81 1016.86 1016.92 1017.00 1017.10 1017.21 1017.32 1017.39 1017.42 1017.39 1017.29 1017.13 1016.93 1016.71 1016.52 1016.40 1016.37 1016.46
1013.07 1012.92 1012.79 1012.70 1012.66 1012.66 1012.71 1012.80 1012.92 1013.06 1013.22 1013.41 1013.64 1013.91 1014.21 1014.56 1014.94 1015.34 1015.73 1016.09 1016.40 1016.65 1016.83 1016.94 1017.00 1017.02 1017.03 1017.04 1017.08 1017.15 1017.24 1017.35 1017.44 1017.51 1017.53 1017.48 1017.38 1017.23 1017.05 1016.89 1016.76 1016.70 1016.72
1013.60 1013.35 1013.13 1012.96 1012.85 1012.81 1012.83 1012.90 1013.01 1013.14 1013.30 1013.48 1013.69 1013.95 1014.25 1014.59 1014.98 1015.39 1015.81 1016.20 1016.54 1016.82 1017.01 1017.12 1017.16 1017.15 1017.12 1017.08 1017.07 1017.10 1017.17 1017.26 1017.36 1017.46 1017.52 1017.54 1017.50 1017.41 1017.29 1017.16 1017.05 1016.97 1016.95
1014.22 1013.92 1013.64 1013.41 1013.25 1013.17 1013.16 1013.20 1013.29 1013.40 1013.53 1013.68 1013.85 1014.06 1014.32 1014.63 1015.00 1015.39 1015.80 1016.19 1016.54 1016.83 1017.03 1017.13 1017.16 1017.13 1017.07 1017.00 1016.96 1016.95 1017.00 1017.08 1017.19 1017.31 1017.41 1017.48 1017.50 1017.48 1017.42 1017.33 1017.25 1017.17 1017.13
1014.93 1014.62 1014.31 1014.06 1013.87 1013.76 1013.73 1013.74 1013.79 1013.86 1013.94 1014.02 1014.12 1014.26 1014.44 1014.68 1014.97 1015.30 1015.66 1016.02 1016.34 1016.61 1016.80 1016.91 1016.94 1016.91 1016.84 1016.78 1016.73 1016.72 1016.76 1016.84 1016.97 1017.11 1017.24 1017.35 1017.42 1017.45 1017.44 1017.40 1017.35 1017.30 1017.26
1015.70 1015.41 1015.12 1014.87 1014.69 1014.57 1014.51 1014.50 1014.50 1014.51 1014.51 1014.51 1014.52 1014.55 1014.61 1014.73 1014.91 1015.13 1015.40 1015.67 1015.94 1016.16 1016.33 1016.44 1016.48 1016.47 1016.44 1016.40 1016.39 1016.40 1016.47 1016.58 1016.72 1016.88 1017.03 1017.17 1017.27 1017.34 1017.37 1017.37 1017.35 1017.32 1017.30
1016.49 1016.26 1016.01 1015.80 1015.64 1015.53 1015.46 1015.41 1015.37 1015.31 1015.23 1015.13 1015.02 1014.91 1014.84 1014.80 1014.83 1014.91 1015.03 1015.19 1015.36 1015.52 1015.66 1015.76 1015.82 1015.86 1015.88 1015.91 1015.96 1016.04 1016.16 1016.30 1016.47 1016.65 1016.81 1016.96 1017.07 1017.15 1017.19 1017.21 1017.22 1017.22 1017.23
1017.25 1017.09 1016.92 1016.76 1016.63 1016.54 1016.47 1016.40 1016.31 1016.19 1016.03 1015.82 1015.59 1015.34 1015.11 1014.91 1014.76 1014.67 1014.63 1014.64 1014.69 1014.77 1014.86 1014.95 1015.04 1015.13 1015.23 1015.34 1015.48 1015.64 1015.83 1016.02 1016.22 1016.41 1016.57 1016.70 1016.79 1016.85 1016.88 1016.90 1016.92 1016.94 1016.98
1017.93 1017.85 1017.76 1017.67 1017.59 1017.52 1017.45 1017.36 1017.24 1017.06 1016.82 1016.52 1016.17 1015.79 1015.41 1015.05 1014.72 1014.46 1014.25 1014.11 1014.04 1014.02 1014.04 1014.12 1014.22 1014.37 1014.55 1014.75 1014.99 1015.23 1015.49 1015.73 1015.95 1016.13 1016.27 1016.36 1016.41 1016.43 1016.42 1016.42 1016.43 1016.46 1016.53
1018.52 1018.52 1018.49 1018.46 1018.42 1018.37 1018.31 1018.21 1018.05 1017.82 1017.51 1017.14 1016.70 1016.21 1015.71 1015.21 1014.73 1014.31 1013.95 1013.67 1013.47 1013.35 1013.32 1013.36 1013.48 1013.66 1013.90 1014.18 1014.49 1014.81 1015.12 1015.39 1015.62 1015.78 1015.88 1015.91 1015.90 1015.85 1015.79 1015.75 1015.74 1015.78 1015.86
1019.01 1019.06 1019.09 1019.10 1019.08 1019.05 1018.98 1018.85 1018.66 1018.39 1018.04 1017.61 1017.11 1016.55 1015.96 1015.36 1014.78 1014.24 1013.77 1013.37 1013.06 1012.85 1012.75 1012.75 1012.86 1013.05 1013.32 1013.64 1014.00 1014.35 1014.69 1014.97 1015.18 1015.30 1015.35 1015.32 1015.23 1015.12 1015.00 1014.91 1014.88 1014.91 1015.01
Thickness
5830 5829 5826 5823 5816 5810 5805 5801 5796 5793 5790 5785 5781 5777 5775 5775 5774 5773 5771 5770 5768 5767 5766 5765 5764 5764 5762 5761 5761 5760 5759 5758 5760 5756 5755 5760 5765 5766 5767 5768 5768 5767 5766
5830 5828 5826 5823 5817 5810 5807 5803 5799 5795 5791 5787 5784 5781 5779 5777 5776 5774 5772 5770 5768 5767 5767 5765 5764 5763 5762 5760 5760 5759 5758 5758 5759 5754 5749 5747 5752 5760 5765 5765 5764 5764 5765
5833 5828 5826 5823 5819 5814 5810 5808 5802 5798 5794 5790 5786 5783 5779 5776 5774 5772 5771 5771 5769 5768 5767 5766 5765 5764 5762 5760 5760 5760 5757 5755 5757 5757 5750 5743 5741 5749 5756 5759 5760 5761 5761
5842 5835 5830 5826 5822 5819 5816 5811 5806 5801 5796 5792 5787 5781 5776 5772 5772 5772 5772 5772 5770 5769 5768 5767 5765 5764 5763 5761 5761 5761 5759 5757 5754 5755 5756 5754 5752 5744 5743 5750 5755 5756 5755
5848 5841 5837 5832 5829 5825 5820 5814 5808 5802 5798 5794 5790 5784 5780 5777 5777 5775 5773 5771 5771 5770 5769 5767 5766 5764 5763 5762 5761 5760 5759 5757 5755 5753 5753 5752 5751 5749 5742 5738 5743 5747 5750
5853 5847 5843 5838 5832 5828 5823 5816 5808 5803 5800 5795 5791 5786 5781 5778 5775 5773 5771 5771 5771 5770 5769 5768 5766 5764 5763 5761 5761 5760 5758 5757 5756 5754 5753 5750 5747 5745 5743 5738 5737 5737 5741
5854 5849 5842 5836 5831 5827 5823 5817 5809 5803 5800 5796 5791 5788 5784 5780 5776 5774 5772 5771 5770 5769 5769 5768 5766 5764 5763 5761 5760 5758 5757 5756 5754 5753 5752 5751 5750 5749 5746 5740 5736 5734 5735
5856 5850 5844 5838 5832 5828 5822 5816 5809 5803 5800 5796 5791 5789 5786 5782 5779 5776 5774 5772 5770 5770 5769 5767 5766 5764 5763 5761 5759 5757 5755 5755 5753 5752 5751 5750 5750 5749 5746 5741 5735 5728 5727
5855 5851 5846 5840 5834 5828 5823 5818 5810 5804 5800 5796 5792 5788 5785 5782 5779 5777 5775 5773 5772 5770 5768 5766 5764 5762 5760 5759 5756 5754 5752 5752 5750 5749 5748 5747 5747 5746 5745 5743 5738 5729 5721
5855 5851 5847 5841 5836 5831 5825 5819 5811 5805 5801 5797 5793 5789 5785 5782 5779 5776 5773 5771 5769 5768 5766 5764 5762 5760 5758 5756 5754 5751 5750 5748 5746 5745 5743 5742 5742 5742 5741 5739 5736 5733 5725
5854 5850 5846 5842 5837 5830 5823 5816 5810 5804 5800 5796 5792 5788 5784 5781 5778 5774 5771 5769 5767 5765 5763 5761 5759 5757 5755 5753 5751 5748 5746 5743 5741 5740 5739 5737 5737 5736 5736 5734 5732 5728 5724
5853 5849 5844 5839 5833 5827 5821 5815 5809 5804 5799 5795 5791 5786 5782 5779 5775 5772 5770 5768 5765 5763 5760 5758 5756 5754 5751 5749 5747 5744 5741 5738 5736 5734 5732 5731 5732 5730 5729 5728 5725 5723 5720
5847 5844 5839 5834 5828 5824 5819 5814 5809 5804 5799 5794 5789 5783 5780 5777 5773 5770 5768 5765 5762 5759 5757 5754 5752 5749 5747 5745 5742 5739 5737 5734 5731 5729 5726 5725 5724 5723 5722 5721 5719 5717 5715
5840 5837 5832 5829 5825 5820 5816 5812 5807 5804 5798 5792 5786 5781 5777 5774 5771 5768 5765 5762 5759 5755 5752 5750 5747 5745 5742 5739 5737 5734 5731 5729 5726 5723 5720 5718 5717 5715 5715 5713 5711 5709 5706
5834 5831 5827 5824 5820 5816 5813 5810 5805 5801 5797 5790 5784 5779 5776 5772 5769 5765 5761 5758 5755 5752 5748 5745 5742 5739 5736 5732 5730 5729 5726 5723 5720 5717 5714 5712 5710 5708 5707 5706 5702 5701 5697
5830 5828 5824 5820 5816 5813 5810 5807 5802 5798 5793 5787 5782 5778 5773 5769 5765 5761 5757 5753 5749 5746 5742 5739 5735 5731 5727 5724 5723 5722 5720 5717 5714 5711 5709 5706 5703 5701 5699 5696 5695 5693 5689
5828 5824 5821 5817 5814 5812 5809 5804 5800 5796 5790 5784 5779 5775 5770 5765 5761 5758 5752 5748 5743 5740 5736 5732 5728 5723 5718 5717 5716 5714 5713 5710 5707 5704 5702 5700 5696 5693 5691 5689 5687 5684 5681
5825 5822 5819 5815 5813 5811 5807 5803 5797 5791 5786 5780 5775 5771 5767 5761 5757 5753 5748 5743 5739 5734 5730 5726 5722 5718 5712 5710 5709 5707 5706 5703 5699 5696 5694 5690 5687 5685 5683 5682 5678 5675 5671
5823 5821 5819 5814 5810 5806 5803 5798 5792 5787 5781 5776 5771 5767 5763 5757 5752 5747 5742 5738 5734 5729 5725 5721 5716 5712 5707 5704 5703 5701 5700 5696 5692 5689 5684 5682 5679 5676 5675 5673 5669 5665 5661
5818 5815 5813 5809 5804 5801 5798 5791 5785 5780 5776 5772 5768 5764 5759 5754 5748 5743 5738 5734 5730 5725 5720 5715 5711 5707 5702 5698 5697 5696 5696 5691 5686 5681 5677 5673 5670 5668 5666 5664 5660 5656 5653
5810 5807 5805 5800 5797 5795 5791 5784 5779 5774 5772 5769 5764 5759 5755 5750 5744 5739 5734 5729 5724 5719 5715 5710 5705 5701 5697 5693 5691 5690 5688 5685 5681 5675 5669 5664 5661 5659 5657 5655 5651 5647 5645
5802 5800 5795 5791 5790 5789 5783 5776 5771 5770 5767 5763 5757 5752 5748 5745 5740 5733 5728 5723 5718 5713 5708 5704 5699 5695 5690 5687 5684 5682 5679 5676 5673 5667 5662 5657 5653 5651 5649 5646 5643 5642 5640
5794 5792 5788 5783 5782 5781 5777 5769 5766 5764 5760 5755 5749 5745 5741 5737 5733 5727 5722 5717 5713 5710 5705 5700 5695 5690 5685 5680 5677 5674 5671 5667 5663 5658 5654 5650 5646 5643 5641 5638 5636 5633 5631
5785 5784 5780 5775 5773 5772 5769 5765 5761 5758 5753 5747 5743 5739 5734 5729 5725 5721 5717 5712 5708 5704 5700 5696 5691 5685 5680 5675 5670 5667 5662 5658 5654 5650 5646 5643 5640 5636 5633 5631 5629 5626 5623
5777 5776 5772 5768 5766 5764 5761 5758 5755 5751 5745 5740 5736 5732 5728 5723 5718 5713 5707 5704 5699 5697 5694 5690 5686 5680 5674 5667 5663 5660 5656 5652 5647 5643 5641 5637 5634 5631 5628 5625 5622 5619 5616
5767 5766 5764 5761 5759 5756 5753 5751 5748 5745 5739 5733 5729 5726 5723 5717 5711 5705 5698 5691 5690 5686 5684 5681 5677 5671 5665 5659 5656 5652 5649 5645 5641 5637 5634 5631 5628 5625 5621 5618 5614 5611 5607